FW3157 Weather Reports


time (UTC)temp
C
wind
direction
speed
KPH
gust
KPH
rain 1hr
cm
rain 24hr
cm
rain mn
cm
humidity
%
barometer
mb
20260901083604 28 288 4.8 8.0 0.00 0.00 0.00 60 1015.4
20260901083059 28 270 3.2 9.7 0.00 0.00 0.00 58 1015.4
20260901082600 28 262 3.2 9.7 0.00 0.00 0.00 60 1015.4
20260901082057 28 296 3.2 6.4 0.00 0.00 0.00 63 1015.4
20260901081557 28 258 3.2 8.0 0.00 0.00 0.00 65 1015.4
20260901081056 28 276 4.8 8.0 0.00 0.00 0.00 65 1015.4
20260901080557 27 293 4.8 8.0 0.00 0.00 0.00 66 1015.5
20260901080057 27 293 4.8 8.0 0.00 0.00 0.00 68 1015.5
20260901075554 27 256 4.8 9.7 0.00 0.00 0.00 67 1015.5
20260901075055 27 238 4.8 11.3 0.00 0.00 0.00 67 1015.5
20260901074818 27 254 4.8 11.3 0.00 0.00 0.00 68 1015.5
20260901074054 27 269 4.8 9.7 0.00 0.00 0.00 69 1015.5
20260901073555 27 264 6.4 11.3 0.00 0.00 0.00 70 1015.5
20260901073054 27 261 6.4 12.9 0.00 0.00 0.00 71 1015.5
20260901072552 27 283 8.0 14.5 0.00 0.00 0.00 71 1015.5
20260901072052 27 260 6.4 14.5 0.00 0.00 0.00 71 1015.4
20260901071552 27 250 4.8 11.3 0.00 0.00 0.00 68 1015.4
20260901071045 27 250 4.8 11.3 0.00 0.00 0.00 67 1015.4
20260901070540 27 248 6.4 11.3 0.00 0.00 0.00 68 1015.3
20260901070033 27 260 6.4 11.3 0.00 0.00 0.00 68 1015.3
20260901065528 27 265 3.2 8.0 0.00 0.00 0.00 66 1015.2
20260901065022 28 268 1.6 6.4 0.00 0.00 0.00 62 1015.2
20260901064516 28 236 0.0 3.2 0.00 0.00 0.00 58 1015.2
20260901064010 28 163 0.0 1.6 0.00 0.00 0.00 60 1015.2
20260901063504 28 146 0.0 4.8 0.00 0.00 0.00 62 1015.1
20260901062957 28 79 1.6 4.8 0.00 0.00 0.00 62 1015.0
20260901062452 27 114 1.6 3.2 0.00 0.00 0.00 64 1015.1
20260901061946 27 112 1.6 4.8 0.00 0.00 0.00 66 1015.1
20260901061439 27 51 1.6 4.8 0.00 0.00 0.00 67 1015.1
20260901060934 27 30 1.6 4.8 0.00 0.00 0.00 68 1015.1
20260901060427 26 30 1.6 6.4 0.00 0.00 0.00 70 1015.2
20260901055922 26 19 1.6 6.4 0.00 0.00 0.00 72 1015.3
20260901055416 26 300 3.2 6.4 0.00 0.00 0.00 72 1015.3
20260901054910 25 296 4.8 6.4 0.00 0.00 0.00 73 1015.3
20260901054404 25 304 3.2 9.7 0.00 0.00 0.00 73 1015.3
20260901053857 25 6 3.2 9.7 0.00 0.00 0.00 74 1015.3
20260901053352 25 289 4.8 8.0 0.00 0.00 0.00 76 1015.3
20260901053103 25 297 4.8 9.7 0.00 0.00 0.00 76 1015.3
20260901052340 25 315 6.4 9.7 0.00 0.00 0.00 77 1015.3
20260901051834 25 301 6.4 9.7 0.00 0.00 0.00 78 1015.3
20260901051547 25 315 6.4 9.7 0.00 0.00 0.00 78 1015.3
20260901050823 25 293 6.4 9.7 0.00 0.00 0.00 78 1015.2
20260901050316 25 314 6.4 11.3 0.00 0.00 0.00 78 1015.3
20260901045810 25 281 4.8 11.3 0.00 0.00 0.00 78 1015.3
20260901045306 24 274 6.4 12.9 0.00 0.00 0.00 77 1015.2
20260901045006 25 294 4.8 14.5 0.00 0.00 0.00 77 1015.1
20260901044841 25 279 6.4 14.5 0.00 0.00 0.00 78 1015.1
20260901044007 25 255 6.4 9.7 0.00 0.00 0.00 78 1015.0
20260901043240 25 257 6.4 11.3 0.00 0.00 0.00 79 1014.9
20260901042734 25 277 4.8 11.3 0.00 0.00 0.00 78 1014.9
20260901042227 25 272 3.2 8.0 0.00 0.00 0.00 76 1014.8
20260901041945 25 253 1.6 3.2 0.00 0.00 0.00 76 1014.7
20260901041216 25 99 0.0 1.6 0.00 0.00 0.00 68 1014.7
20260901040710 25 99 0.0 1.6 0.00 0.00 0.00 68 1014.6
20260901040424 25 99 0.0 1.6 0.00 0.00 0.00 68 1014.5
20260901035658 25 99 0.0 1.6 0.00 0.00 0.00 67 1014.5
20260901035151 25 99 0.0 0.0 0.00 0.00 0.00 68 1014.3
20260901034645 25 99 0.0 0.0 0.00 0.00 0.00 68 1014.4
20260901034140 25 99 0.0 0.0 0.00 0.00 0.00 67 1014.3
20260901033633 25 99 0.0 1.6 0.00 0.00 0.00 67 1014.3
20260901033127 25 99 0.0 0.0 0.00 0.00 0.00 67 1014.3
20260901032845 25 99 0.0 3.2 0.00 0.00 0.00 67 1014.2
20260901032115 25 99 1.6 4.8 0.00 0.00 0.00 67 1014.2
20260901031609 25 99 3.2 4.8 0.00 0.00 0.00 67 1014.2
20260901031108 25 101 3.2 3.2 0.00 0.00 0.00 67 1014.2
20260901030608 25 99 1.6 3.2 0.00 0.00 0.00 67 1014.3
20260901030108 25 99 1.6 3.2 0.00 0.00 0.00 67 1014.3
20260901025608 25 94 1.6 3.2 0.00 0.00 0.00 68 1014.4
20260901025106 25 94 1.6 3.2 0.00 0.00 0.00 67 1014.5
20260901024603 25 94 1.6 3.2 0.00 0.00 0.00 68 1014.5
20260901024101 25 94 0.0 1.6 0.00 0.00 0.00 69 1014.4
20260901023600 25 94 0.0 1.6 0.00 0.00 0.00 69 1014.4
20260901023101 25 94 0.0 1.6 0.00 0.00 0.00 68 1014.4
20260901022600 25 94 0.0 1.6 0.00 0.00 0.00 68 1014.5
20260901022057 25 94 1.6 3.2 0.00 0.00 0.00 68 1014.4
20260901021558 25 94 1.6 3.2 0.00 0.00 0.00 68 1014.4
20260901021058 25 101 0.0 3.2 0.00 0.00 0.00 70 1014.4
20260901020558 25 94 0.0 3.2 0.00 0.00 0.00 69 1014.5
20260901020058 25 94 1.6 3.2 0.00 0.00 0.00 70 1014.6
20260901015556 25 94 1.6 3.2 0.00 0.00 0.00 70 1014.6
20260901015056 25 94 1.6 1.6 0.00 0.00 0.00 70 1014.6
20260901014553 25 89 0.0 1.6 0.00 0.00 0.00 70 1014.7
20260901014055 25 89 1.6 4.8 0.00 0.00 0.00 70 1014.7
20260901013554 25 89 3.2 4.8 0.00 0.00 0.00 70 1014.7
20260901013052 25 91 1.6 4.8 0.00 0.00 0.00 70 1014.9
20260901012552 25 95 1.6 3.2 0.00 0.00 0.00 70 1014.9
20260901012052 25 72 1.6 4.8 0.00 0.00 0.00 71 1014.9
20260901011550 25 72 1.6 4.8 0.00 0.00 0.00 71 1014.9
20260901011048 25 90 1.6 4.8 0.00 0.00 0.00 71 1014.9
20260901010548 25 104 1.6 4.8 0.00 0.00 0.00 71 1014.9
20260901010048 25 90 1.6 3.2 0.00 0.00 0.00 71 1015.0
20260901005545 25 101 0.0 3.2 0.00 0.00 0.00 71 1015.0
20260901005045 25 101 0.0 1.6 0.00 0.00 0.00 70 1015.1
20260901004801 25 101 1.6 1.6 0.00 0.00 0.00 70 1015.1
20260901004531 25 101 1.6 1.6 0.00 0.00 0.00 70 1015.1
20260901003543 25 101 0.0 1.6 0.00 0.00 0.00 70 1015.1
20260901003044 25 101 0.0 0.0 0.00 0.00 0.00 70 1015.1
20260901003032 25 101 0.0 1.6 0.00 0.00 0.00 70 1015.1
20260901002040 25 101 0.0 1.6 0.00 0.00 0.00 70 1015.1
20260901001539 25 101 0.0 0.0 0.00 0.00 0.00 70 1014.9
20260901001040 25 101 0.0 1.6 0.00 0.00 0.00 69 1014.8
20260901001023 25 101 1.6 4.8 0.00 0.00 0.00 69 1014.8
20260901000040 25 101 1.6 4.8 0.00 0.00 0.00 69 1014.7
20260831235539 25 89 1.6 4.8 0.00 0.00 0.00 69 1014.6
20260831235039 25 89 1.6 4.8 0.00 0.00 0.00 69 1014.7
20260831234540 25 82 1.6 4.8 0.00 0.00 0.00 69 1014.7
20260831234039 25 96 1.6 4.8 0.00 0.00 0.00 69 1014.8
20260831233539 25 95 1.6 3.2 0.00 0.00 0.00 69 1014.8
20260831233039 25 95 0.0 1.6 0.00 0.00 0.00 69 1014.9
20260831233033 25 95 0.0 3.2 0.00 0.00 0.00 69 1015.0
20260831232040 26 95 1.6 3.2 0.00 0.00 0.00 69 1014.9
20260831231539 26 102 1.6 4.8 0.00 0.00 0.00 68 1014.9
20260831231040 26 96 1.6 4.8 0.00 0.00 0.00 68 1014.9
20260831230539 26 85 1.6 3.2 0.00 0.00 0.00 68 1015.0
20260831230041 26 89 0.0 3.2 0.00 0.00 0.00 68 1015.0
20260831225534 26 89 0.0 3.2 0.00 0.00 0.00 68 1015.1
20260831225028 26 89 1.6 3.2 0.00 0.00 0.00 68 1015.1
20260831224521 26 89 1.6 3.2 0.00 0.00 0.00 68 1015.1
20260831224014 26 89 0.0 3.2 0.00 0.00 0.00 68 1015.2
20260831223510 26 89 0.0 1.6 0.00 0.00 0.00 68 1015.2
20260831223008 26 89 1.6 3.2 0.00 0.00 0.00 67 1015.1
20260831222507 26 89 3.2 3.2 0.00 0.00 0.00 67 1015.0
20260831222006 26 90 1.6 3.2 0.00 0.00 0.00 67 1015.0
20260831221721 26 108 1.6 4.8 0.00 0.00 0.00 67 1015.0
20260831221003 26 148 1.6 4.8 0.00 0.00 0.00 67 1015.0
20260831220459 26 105 0.0 3.2 0.00 0.00 0.00 68 1015.0
20260831215957 26 150 0.0 1.6 0.00 0.00 0.00 68 1015.1
20260831215455 26 150 0.0 1.6 0.00 0.00 0.00 68 1015.2
20260831214953 26 125 0.0 1.6 0.00 0.00 0.00 67 1015.3
20260831214451 26 125 0.0 3.2 0.00 0.00 0.00 67 1015.3
20260831213951 26 137 0.0 3.2 0.00 0.00 0.00 67 1015.3
20260831213451 26 105 0.0 1.6 0.00 0.00 0.00 66 1015.3
20260831212950 26 105 0.0 1.6 0.00 0.00 0.00 66 1015.3
20260831212449 26 105 0.0 1.6 0.00 0.00 0.00 66 1015.4
20260831211946 26 105 0.0 0.0 0.00 0.00 0.00 65 1015.4
20260831211711 26 105 0.0 1.6 0.00 0.00 0.00 65 1015.3
20260831210941 26 105 0.0 1.6 0.00 0.00 0.00 65 1015.3
20260831210439 26 105 0.0 1.6 0.00 0.00 0.00 65 1015.3
20260831210157 26 105 0.0 3.2 0.00 0.00 0.00 65 1015.3
20260831205435 26 105 0.0 3.2 0.00 0.00 0.00 65 1015.3
20260831205152 26 105 1.6 3.2 0.00 0.00 0.00 65 1015.4
20260831204427 26 105 0.0 1.6 0.00 0.00 0.00 65 1015.4
20260831203921 26 105 0.0 1.6 0.00 0.00 0.00 66 1015.4
20260831203414 26 105 0.0 3.2 0.00 0.00 0.00 66 1015.5
20260831202909 26 105 0.0 3.2 0.00 0.00 0.00 66 1015.5
20260831202403 26 105 0.0 3.2 0.00 0.00 0.00 66 1015.5
20260831201857 26 105 0.0 3.2 0.00 0.00 0.00 67 1015.5
20260831201351 26 105 1.6 3.2 0.00 0.00 0.00 67 1015.4
20260831200844 26 124 0.0 1.6 0.00 0.00 0.00 67 1015.3
20260831200338 26 145 0.0 1.6 0.00 0.00 0.00 68 1015.2
20260831195834 26 210 0.0 3.2 0.00 0.00 0.00 68 1015.1
20260831195326 26 181 0.0 3.2 0.00 0.00 0.00 67 1015.1
20260831194821 26 152 0.0 3.2 0.00 0.00 0.00 67 1015.2
20260831194314 26 211 1.6 4.8 0.00 0.00 0.00 67 1015.2
20260831193809 26 137 1.6 6.4 0.00 0.00 0.00 67 1015.1
20260831193303 26 151 1.6 6.4 0.00 0.00 0.00 67 1015.0
20260831192757 26 91 1.6 6.4 0.00 0.00 0.00 68 1014.9
20260831192513 26 184 1.6 8.0 0.00 0.00 0.00 68 1015.0
20260831191746 26 211 3.2 8.0 0.00 0.00 0.00 68 1015.0
20260831191505 26 135 1.6 6.4 0.00 0.00 0.00 68 1015.0
20260831190732 26 122 3.2 9.7 0.00 0.00 0.00 68 1015.0
20260831190227 26 171 4.8 9.7 0.00 0.00 0.00 68 1014.8
20260831185720 27 81 4.8 9.7 0.00 0.00 0.00 67 1014.9
20260831185215 27 149 3.2 11.3 0.00 0.00 0.00 67 1014.9
20260831184708 27 84 3.2 11.3 0.00 0.00 0.00 66 1014.9
20260831184202 27 136 4.8 9.7 0.00 0.00 0.00 66 1014.8
20260831183656 27 219 4.8 11.3 0.00 0.00 0.00 66 1014.8
20260831183410 27 154 4.8 14.5 0.00 0.00 0.00 66 1014.8
20260831182644 27 75 3.2 14.5 0.00 0.00 0.00 65 1014.8
20260831182138 27 108 1.6 11.3 0.00 0.00 0.00 65 1014.7
20260831181633 27 146 3.2 9.7 0.00 0.00 0.00 65 1014.7
20260831181127 27 133 4.8 11.3 0.00 0.00 0.00 65 1014.7
20260831180620 27 143 6.4 16.1 0.00 0.00 0.00 65 1014.7
20260831180115 27 274 4.8 16.1 0.00 0.00 0.00 65 1014.6
20260831175609 27 172 3.2 12.9 0.00 0.00 0.00 65 1014.6
20260831175102 27 216 4.8 12.9 0.00 0.00 0.00 65 1014.5
20260831174823 27 204 4.8 14.5 0.00 0.00 0.00 65 1014.4
20260831174051 27 148 4.8 14.5 0.00 0.00 0.00 65 1014.3
20260831173545 27 216 4.8 11.3 0.00 0.00 0.00 64 1014.3
20260831173039 27 118 4.8 11.3 0.00 0.00 0.00 65 1014.3
20260831172533 27 129 4.8 14.5 0.00 0.00 0.00 65 1014.3
20260831172251 27 214 4.8 14.5 0.00 0.00 0.00 65 1014.2
20260831171520 27 89 3.2 11.3 0.00 0.00 0.00 65 1014.1
20260831171014 28 84 4.8 11.3 0.00 0.00 0.00 65 1014.0
20260831170508 28 101 4.8 11.3 0.00 0.00 0.00 65 1014.0
20260831170004 28 144 4.8 12.9 0.00 0.00 0.00 64 1014.0
20260831165456 28 171 6.4 17.7 0.00 0.00 0.00 63 1014.0
20260831165215 28 107 6.4 17.7 0.00 0.00 0.00 63 1014.0
20260831164705 28 205 6.4 14.5 0.00 0.00 0.00 63 1013.9
20260831163938 28 234 6.4 12.9 0.00 0.00 0.00 63 1013.9
20260831163433 28 196 6.4 14.5 0.00 0.00 0.00 63 1013.8
20260831162927 28 236 6.4 16.1 0.00 0.00 0.00 62 1013.8
20260831162425 29 182 8.0 16.1 0.00 0.00 0.00 60 1013.8
20260831161925 29 143 6.4 16.1 0.00 0.00 0.00 60 1013.7
20260831161644 29 198 6.4 16.1 0.00 0.00 0.00 60 1013.6
20260831161155 30 141 6.4 12.9 0.00 0.00 0.00 59 1013.7
20260831160643 30 188 8.0 16.1 0.00 0.00 0.00 59 1013.7
20260831155925 30 122 8.0 16.1 0.00 0.00 0.00 59 1013.7
20260831155424 30 173 6.4 16.1 0.00 0.00 0.00 59 1013.6
20260831154925 30 245 6.4 16.1 0.00 0.00 0.00 58 1013.7
20260831154425 30 236 8.0 16.1 0.00 0.00 0.00 57 1013.8
20260831153925 30 176 8.0 16.1 0.00 0.00 0.00 58 1013.7
20260831153425 31 145 4.8 12.9 0.00 0.00 0.00 57 1013.8
20260831152925 31 224 6.4 16.1 0.00 0.00 0.00 56 1013.8
20260831152425 31 205 6.4 16.1 0.00 0.00 0.00 56 1013.8
20260831151925 31 122 8.0 17.7 0.00 0.00 0.00 54 1013.8
20260831151425 31 192 8.0 17.7 0.00 0.00 0.00 53 1013.8
20260831150925 31 235 8.0 17.7 0.00 0.00 0.00 52 1013.9
20260831150425 31 243 6.4 17.7 0.00 0.00 0.00 51 1013.9
20260831145925 31 245 6.4 16.1 0.00 0.00 0.00 51 1013.8
20260831145645 31 99 6.4 16.1 0.00 0.00 0.00 51 1013.8
20260831144926 31 201 4.8 14.5 0.00 0.00 0.00 50 1013.8
20260831144425 31 237 6.4 20.9 0.00 0.00 0.00 51 1013.8
20260831143925 31 176 8.0 20.9 0.00 0.00 0.00 51 1013.9
20260831143425 31 211 8.0 17.7 0.00 0.00 0.00 52 1013.9
20260831142923 31 212 9.7 20.9 0.00 0.00 0.00 52 1013.9
20260831142423 31 290 8.0 20.9 0.00 0.00 0.00 51 1014.0
20260831141922 31 217 8.0 17.7 0.00 0.00 0.00 50 1014.0
20260831141421 31 207 6.4 16.1 0.00 0.00 0.00 49 1014.0
20260831140921 32 186 6.4 16.1 0.00 0.00 0.00 49 1014.0
20260831140422 31 201 6.4 16.1 0.00 0.00 0.00 50 1014.1
20260831135919 32 267 6.4 12.9 0.00 0.00 0.00 48 1014.1
20260831135417 32 289 6.4 17.7 0.00 0.00 0.00 48 1014.1
20260831134917 32 256 4.8 17.7 0.00 0.00 0.00 47 1014.1
20260831134417 32 171 6.4 14.5 0.00 0.00 0.00 48 1014.2
20260831133919 31 213 8.0 17.7 0.00 0.00 0.00 49 1014.2
20260831133414 31 205 8.0 17.7 0.00 0.00 0.00 47 1014.4
20260831132915 31 230 8.0 17.7 0.00 0.00 0.00 49 1014.3
20260831132413 31 191 9.7 17.7 0.00 0.00 0.00 49 1014.3
20260831131912 31 164 9.7 20.9 0.00 0.00 0.00 48 1014.3
20260831131412 31 217 8.0 20.9 0.00 0.00 0.00 47 1014.4
20260831130913 32 203 4.8 16.1 0.00 0.00 0.00 47 1014.4
20260831130411 32 225 4.8 11.3 0.00 0.00 0.00 48 1014.5
20260831130351 32 257 4.8 17.7 0.00 0.00 0.00 49 1014.6
20260831125409 31 215 4.8 17.7 0.00 0.00 0.00 49 1014.6
20260831124908 31 242 6.4 16.1 0.00 0.00 0.00 51 1014.6
20260831124408 31 212 8.0 16.1 0.00 0.00 0.00 51 1014.7
20260831123908 31 103 8.0 16.1 0.00 0.00 0.00 53 1014.8
20260831123408 31 185 8.0 16.1 0.00 0.00 0.00 52 1014.8
20260831122904 31 212 8.0 17.7 0.00 0.00 0.00 53 1014.9
20260831122405 31 193 8.0 17.7 0.00 0.00 0.00 51 1014.9
20260831121905 31 257 6.4 16.1 0.00 0.00 0.00 53 1015.0
20260831121629 30 192 8.0 19.3 0.00 0.00 0.00 56 1015.0
20260831120904 30 191 8.0 19.3 0.00 0.00 0.00 57 1015.1
20260831120405 30 203 9.7 17.7 0.00 0.00 0.00 58 1015.1
20260831115905 30 183 9.7 17.7 0.00 0.00 0.00 58 1015.2
20260831115404 30 231 8.0 17.7 0.00 0.00 0.00 56 1015.3
20260831114905 30 255 9.7 19.3 0.00 0.00 0.00 57 1015.3
20260831114616 30 248 8.0 19.3 0.00 0.00 0.00 57 1015.4
20260831113857 30 245 8.0 16.1 0.00 0.00 0.00 57 1015.4
20260831113356 30 277 8.0 17.7 0.00 0.00 0.00 57 1015.4
20260831112857 30 239 8.0 20.9 0.00 0.00 0.00 58 1015.4
20260831112356 30 226 8.0 20.9 0.00 0.00 0.00 57 1015.5
20260831111856 30 275 9.7 20.9 0.00 0.00 0.00 57 1015.5
20260831111356 30 276 8.0 17.7 0.00 0.00 0.00 56 1015.5
20260831110856 30 266 8.0 22.5 0.00 0.00 0.00 57 1015.5
20260831110357 30 206 8.0 22.5 0.00 0.00 0.00 57 1015.6
20260831105857 30 276 8.0 19.3 0.00 0.00 0.00 57 1015.6
20260831105355 30 203 8.0 19.3 0.00 0.00 0.00 57 1015.6
20260831104850 30 233 9.7 22.5 0.00 0.00 0.00 56 1015.7
20260831104343 30 292 9.7 22.5 0.00 0.00 0.00 55 1015.7
20260831103837 30 250 8.0 20.9 0.00 0.00 0.00 56 1015.8
20260831103332 30 215 8.0 20.9 0.00 0.00 0.00 55 1015.8
20260831102826 30 257 9.7 20.9 0.00 0.00 0.00 55 1015.8
20260831102320 30 270 9.7 20.9 0.00 0.00 0.00 56 1015.8
20260831101814 30 328 9.7 20.9 0.00 0.00 0.00 57 1015.8
20260831101308 30 264 8.0 19.3 0.00 0.00 0.00 57 1015.9
20260831100802 30 260 8.0 16.1 0.00 0.00 0.00 57 1016.0
20260831100524 30 260 8.0 16.1 0.00 0.00 0.00 58 1016.0
20260831095800 30 251 6.4 16.1 0.00 0.00 0.00 57 1016.1
20260831095301 29 264 8.0 14.5 0.00 0.00 0.00 56 1016.2
20260831095023 29 271 8.0 14.5 0.00 0.00 0.00 56 1016.2
20260831094259 29 232 6.4 17.7 0.00 0.00 0.00 62 1016.2
20260831093754 28 271 8.0 17.7 0.00 0.00 0.00 65 1016.2
20260831093254 28 259 6.4 12.9 0.00 0.00 0.00 69 1016.3
20260831092755 28 257 6.4 12.9 0.00 0.00 0.00 71 1016.3
20260831092254 28 285 8.0 14.5 0.00 0.00 0.00 74 1016.4
20260831091755 27 269 8.0 14.5 0.00 0.00 0.00 74 1016.4
20260831091254 27 255 8.0 14.5 0.00 0.00 0.00 74 1016.5
20260831090754 27 289 8.0 14.5 0.00 0.00 0.00 73 1016.6
20260831090255 27 300 8.0 14.5 0.00 0.00 0.00 72 1016.7
20260831085754 27 293 6.4 12.9 0.00 0.00 0.00 70 1016.7
20260831085254 27 254 6.4 12.9 0.00 0.00 0.00 69 1016.7
20260831084748 27 278 6.4 11.3 0.00 0.00 0.00 69 1016.7
20260831084242 27 293 6.4 9.7 0.00 0.00 0.00 69 1016.9